Year,Month,Day,Hour,Minute,Value (Times are PST for temperature in C)
2021,06,02,00,00,19.70
2021,06,02,00,01,19.70
2021,06,02,00,02,19.70
2021,06,02,00,03,19.70
2021,06,02,00,04,19.70
2021,06,02,00,05,19.70
2021,06,02,00,06,19.70
2021,06,02,00,07,19.70
2021,06,02,00,08,19.70
2021,06,02,00,09,19.60
2021,06,02,00,10,19.60
2021,06,02,00,11,19.60
2021,06,02,00,12,19.60
2021,06,02,00,13,19.60
2021,06,02,00,14,19.50
2021,06,02,00,15,19.50
2021,06,02,00,16,19.40
2021,06,02,00,17,19.40
2021,06,02,00,18,19.40
2021,06,02,00,19,19.40
2021,06,02,00,20,19.40
2021,06,02,00,21,19.40
2021,06,02,00,22,19.30
2021,06,02,00,23,19.30
2021,06,02,00,24,19.30
2021,06,02,00,25,19.30
2021,06,02,00,26,19.30
2021,06,02,00,27,19.30
2021,06,02,00,28,19.20
2021,06,02,00,29,19.20
2021,06,02,00,30,19.20
2021,06,02,00,31,19.20
2021,06,02,00,32,19.10
2021,06,02,00,33,19.10
2021,06,02,00,34,19.10
2021,06,02,00,35,19.10
2021,06,02,00,36,19.10
2021,06,02,00,37,19.10
2021,06,02,00,38,19.10
2021,06,02,00,39,19.10
2021,06,02,00,40,19.10
2021,06,02,00,41,19.10
2021,06,02,00,42,19.10
2021,06,02,00,43,19.10
2021,06,02,00,44,19.10
2021,06,02,00,45,19.10
2021,06,02,00,46,19.10
2021,06,02,00,47,19.10
2021,06,02,00,48,19.10
2021,06,02,00,49,19.10
2021,06,02,00,50,19.10
2021,06,02,00,51,19.00
2021,06,02,00,52,19.00
2021,06,02,00,53,19.00
2021,06,02,00,54,19.00
2021,06,02,00,55,19.00
2021,06,02,00,56,19.00
2021,06,02,00,57,19.00
2021,06,02,00,58,19.00
2021,06,02,00,59,19.00
2021,06,02,01,00,18.90
2021,06,02,01,01,19.00
2021,06,02,01,02,18.90
2021,06,02,01,03,18.90
2021,06,02,01,04,18.90
2021,06,02,01,05,18.90
2021,06,02,01,06,18.90
2021,06,02,01,07,18.90
2021,06,02,01,08,18.90
2021,06,02,01,09,18.90
2021,06,02,01,10,18.90
2021,06,02,01,11,18.90
2021,06,02,01,12,18.90
2021,06,02,01,13,18.90
2021,06,02,01,14,18.90
2021,06,02,01,15,18.90
2021,06,02,01,16,18.90
2021,06,02,01,17,18.90
2021,06,02,01,18,18.90
2021,06,02,01,19,18.90
2021,06,02,01,20,18.90
2021,06,02,01,21,18.90
2021,06,02,01,22,18.80
2021,06,02,01,23,18.80
2021,06,02,01,24,18.80
2021,06,02,01,25,18.80
2021,06,02,01,26,18.80
2021,06,02,01,27,18.80
2021,06,02,01,28,18.80
2021,06,02,01,29,18.80
2021,06,02,01,30,18.80
2021,06,02,01,31,18.80
2021,06,02,01,32,18.80
2021,06,02,01,33,18.70
2021,06,02,01,34,18.70
2021,06,02,01,35,18.70
2021,06,02,01,36,18.70
2021,06,02,01,37,18.70
2021,06,02,01,38,18.70
2021,06,02,01,39,18.60
2021,06,02,01,40,18.60
2021,06,02,01,41,18.60
2021,06,02,01,42,18.60
2021,06,02,01,43,18.50
2021,06,02,01,44,18.50
2021,06,02,01,45,18.40
2021,06,02,01,46,18.40
2021,06,02,01,47,18.40
2021,06,02,01,48,18.30
2021,06,02,01,49,18.30
2021,06,02,01,50,18.30
2021,06,02,01,51,18.20
2021,06,02,01,52,18.20
2021,06,02,01,53,18.20
2021,06,02,01,54,18.20
2021,06,02,01,55,18.10
2021,06,02,01,56,18.10
2021,06,02,01,57,18.10
2021,06,02,01,58,18.00
2021,06,02,01,59,18.00
2021,06,02,02,00,17.90
2021,06,02,02,01,17.90
2021,06,02,02,02,17.90
2021,06,02,02,03,17.80
2021,06,02,02,04,17.80
2021,06,02,02,05,17.80
2021,06,02,02,06,17.80
2021,06,02,02,07,17.70
2021,06,02,02,08,17.70
2021,06,02,02,09,17.70
2021,06,02,02,10,17.60
2021,06,02,02,11,17.60
2021,06,02,02,12,17.50
2021,06,02,02,13,17.50
2021,06,02,02,14,17.40
2021,06,02,02,15,17.40
2021,06,02,02,16,17.40
2021,06,02,02,17,17.30
2021,06,02,02,18,17.30
2021,06,02,02,19,17.30
2021,06,02,02,20,17.30
2021,06,02,02,21,17.30
2021,06,02,02,22,17.20
2021,06,02,02,23,17.20
2021,06,02,02,24,17.20
2021,06,02,02,25,17.20
2021,06,02,02,26,17.20
2021,06,02,02,27,17.10
2021,06,02,02,28,17.10
2021,06,02,02,29,17.10
2021,06,02,02,30,17.10
2021,06,02,02,31,17.10
2021,06,02,02,32,17.10
2021,06,02,02,33,17.10
2021,06,02,02,34,17.10
2021,06,02,02,35,17.00
2021,06,02,02,36,17.00
2021,06,02,02,37,17.00
2021,06,02,02,38,17.00
2021,06,02,02,39,17.00
2021,06,02,02,40,17.00
2021,06,02,02,41,17.00
2021,06,02,02,42,16.90
2021,06,02,02,43,16.90
2021,06,02,02,44,16.90
2021,06,02,02,45,16.90
2021,06,02,02,46,16.90
2021,06,02,02,47,16.90
2021,06,02,02,48,16.90
2021,06,02,02,49,16.80
2021,06,02,02,50,16.80
2021,06,02,02,51,16.80
2021,06,02,02,52,16.80
2021,06,02,02,53,16.80
2021,06,02,02,54,16.80
2021,06,02,02,55,16.70
2021,06,02,02,56,16.70
2021,06,02,02,57,16.70
2021,06,02,02,58,16.70
2021,06,02,02,59,16.70
2021,06,02,03,00,16.60
2021,06,02,03,01,16.60
2021,06,02,03,02,16.60
2021,06,02,03,03,16.60
2021,06,02,03,04,16.60
2021,06,02,03,05,16.50
2021,06,02,03,06,16.50
2021,06,02,03,07,16.50
2021,06,02,03,08,16.50
2021,06,02,03,09,16.50
2021,06,02,03,10,16.50
2021,06,02,03,11,16.50
2021,06,02,03,12,16.50
2021,06,02,03,13,16.50
2021,06,02,03,14,16.50
2021,06,02,03,15,16.50
2021,06,02,03,16,16.50
2021,06,02,03,17,16.40
2021,06,02,03,18,16.40
2021,06,02,03,19,16.40
2021,06,02,03,20,16.40
2021,06,02,03,21,16.40
2021,06,02,03,22,16.40
2021,06,02,03,23,16.40
2021,06,02,03,24,16.40
2021,06,02,03,25,16.40
2021,06,02,03,26,16.40
2021,06,02,03,27,16.40
2021,06,02,03,28,16.40
2021,06,02,03,29,16.40
2021,06,02,03,30,16.40
2021,06,02,03,31,16.40
2021,06,02,03,32,16.40
2021,06,02,03,33,16.40
2021,06,02,03,34,16.40
2021,06,02,03,35,16.40
2021,06,02,03,36,16.40
2021,06,02,03,37,16.40
2021,06,02,03,38,16.40
2021,06,02,03,39,16.40
2021,06,02,03,40,16.40
2021,06,02,03,41,16.40
2021,06,02,03,42,16.30
2021,06,02,03,43,16.30
2021,06,02,03,44,16.30
2021,06,02,03,45,16.30
2021,06,02,03,46,16.30
2021,06,02,03,47,16.30
2021,06,02,03,48,16.20
2021,06,02,03,49,16.20
2021,06,02,03,50,16.20
2021,06,02,03,51,16.20
2021,06,02,03,52,16.20
2021,06,02,03,53,16.20
2021,06,02,03,54,16.10
2021,06,02,03,55,16.10
2021,06,02,03,56,16.10
2021,06,02,03,57,16.10
2021,06,02,03,58,16.10
2021,06,02,03,59,16.10
2021,06,02,04,00,16.00
2021,06,02,04,01,16.00
2021,06,02,04,02,16.00
2021,06,02,04,03,15.90
2021,06,02,04,04,15.90
2021,06,02,04,05,15.90
2021,06,02,04,06,15.90
2021,06,02,04,07,15.90
2021,06,02,04,08,15.90
2021,06,02,04,09,15.80
2021,06,02,04,10,15.80
2021,06,02,04,11,15.80
2021,06,02,04,12,15.80
2021,06,02,04,13,15.80
2021,06,02,04,14,15.70
2021,06,02,04,15,15.70
2021,06,02,04,16,15.70
2021,06,02,04,17,15.70
2021,06,02,04,18,15.70
2021,06,02,04,19,15.70
2021,06,02,04,20,15.60
2021,06,02,04,21,15.60
2021,06,02,04,22,15.60
2021,06,02,04,23,15.60
2021,06,02,04,24,15.50
2021,06,02,04,25,15.50
2021,06,02,04,26,15.50
2021,06,02,04,27,15.40
2021,06,02,04,28,15.40
2021,06,02,04,29,15.40
2021,06,02,04,30,15.40
2021,06,02,04,31,15.30
2021,06,02,04,32,15.30
2021,06,02,04,33,15.30
2021,06,02,04,34,15.30
2021,06,02,04,35,15.30
2021,06,02,04,36,15.20
2021,06,02,04,37,15.20
2021,06,02,04,38,15.20
2021,06,02,04,39,15.20
2021,06,02,04,40,15.10
2021,06,02,04,41,15.10
2021,06,02,04,42,15.10
2021,06,02,04,43,15.10
2021,06,02,04,44,15.10
2021,06,02,04,45,15.00
2021,06,02,04,46,15.00
2021,06,02,04,47,15.00
2021,06,02,04,48,15.00
2021,06,02,04,49,15.00
2021,06,02,04,50,14.90
2021,06,02,04,51,14.90
2021,06,02,04,52,14.90
2021,06,02,04,53,14.90
2021,06,02,04,54,14.90
2021,06,02,04,55,14.90
2021,06,02,04,56,14.90
2021,06,02,04,57,14.80
2021,06,02,04,58,14.80
2021,06,02,04,59,14.80
2021,06,02,05,00,14.80
2021,06,02,05,01,14.80
2021,06,02,05,02,14.80
2021,06,02,05,03,14.80
2021,06,02,05,04,14.80
2021,06,02,05,05,14.70
2021,06,02,05,06,14.70
2021,06,02,05,07,14.70
2021,06,02,05,08,14.70
2021,06,02,05,09,14.70
2021,06,02,05,10,14.70
2021,06,02,05,11,14.70
2021,06,02,05,12,14.70
2021,06,02,05,13,14.70
2021,06,02,05,14,14.70
2021,06,02,05,15,14.70
2021,06,02,05,16,14.60
2021,06,02,05,17,14.60
2021,06,02,05,18,14.60
2021,06,02,05,19,14.60
2021,06,02,05,20,14.60
2021,06,02,05,21,14.60
2021,06,02,05,22,14.60
2021,06,02,05,23,14.50
2021,06,02,05,24,14.50
2021,06,02,05,25,14.50
2021,06,02,05,26,14.50
2021,06,02,05,27,14.50
2021,06,02,05,28,14.50
2021,06,02,05,29,14.40
2021,06,02,05,30,14.40
2021,06,02,05,31,14.40
2021,06,02,05,32,14.40
2021,06,02,05,33,14.40
2021,06,02,05,34,14.40
2021,06,02,05,35,14.40
2021,06,02,05,36,14.40
2021,06,02,05,37,14.40
2021,06,02,05,38,14.40
2021,06,02,05,39,14.40
2021,06,02,05,40,14.40
2021,06,02,05,41,14.40
2021,06,02,05,42,14.30
2021,06,02,05,43,14.30
2021,06,02,05,44,14.30
2021,06,02,05,45,14.30
2021,06,02,05,46,14.30
2021,06,02,05,47,14.30
2021,06,02,05,48,14.30
2021,06,02,05,49,14.30
2021,06,02,05,50,14.30
2021,06,02,05,51,14.30
2021,06,02,05,52,14.30
2021,06,02,05,53,14.30
2021,06,02,05,54,14.30
2021,06,02,05,55,14.30
2021,06,02,05,56,14.30
2021,06,02,05,57,14.40
2021,06,02,05,58,14.40
2021,06,02,05,59,14.40
2021,06,02,06,00,14.40
2021,06,02,06,01,14.40
2021,06,02,06,02,14.50
2021,06,02,06,03,14.50
2021,06,02,06,04,14.50
2021,06,02,06,05,14.50
2021,06,02,06,06,14.50
2021,06,02,06,07,14.50
2021,06,02,06,08,14.60
2021,06,02,06,09,14.60
2021,06,02,06,10,14.60
2021,06,02,06,11,14.60
2021,06,02,06,12,14.60
2021,06,02,06,13,14.50
2021,06,02,06,14,14.50
2021,06,02,06,15,14.50
2021,06,02,06,16,14.50
2021,06,02,06,17,14.50
2021,06,02,06,18,14.50
2021,06,02,06,19,14.50
2021,06,02,06,20,14.50
2021,06,02,06,21,14.50
2021,06,02,06,22,14.50
2021,06,02,06,23,14.50
2021,06,02,06,24,14.60
2021,06,02,06,25,14.60
2021,06,02,06,26,14.60
2021,06,02,06,27,14.60
2021,06,02,06,28,14.60
2021,06,02,06,29,14.60
2021,06,02,06,30,14.60
2021,06,02,06,31,14.60
2021,06,02,06,32,14.60
2021,06,02,06,33,14.60
2021,06,02,06,34,14.60
2021,06,02,06,35,14.60
2021,06,02,06,36,14.70
2021,06,02,06,37,14.70
2021,06,02,06,38,14.70
2021,06,02,06,39,14.70
2021,06,02,06,40,14.70
2021,06,02,06,41,14.70
2021,06,02,06,42,14.70
2021,06,02,06,43,14.80
2021,06,02,06,44,14.80
2021,06,02,06,45,14.80
2021,06,02,06,46,14.80
2021,06,02,06,47,14.90
2021,06,02,06,48,14.90
2021,06,02,06,49,15.00
2021,06,02,06,50,15.10
2021,06,02,06,51,15.10
2021,06,02,06,52,15.20
2021,06,02,06,53,15.20
2021,06,02,06,54,15.30
2021,06,02,06,55,15.30
2021,06,02,06,56,15.40
2021,06,02,06,57,15.50
2021,06,02,06,58,15.60
2021,06,02,06,59,15.60
2021,06,02,07,00,15.70
2021,06,02,07,01,15.70
2021,06,02,07,02,15.80
2021,06,02,07,03,15.80
2021,06,02,07,04,15.90
2021,06,02,07,05,15.90
2021,06,02,07,06,16.00
2021,06,02,07,07,16.10
2021,06,02,07,08,16.10
2021,06,02,07,09,16.20
2021,06,02,07,10,16.20
2021,06,02,07,11,16.30
2021,06,02,07,12,16.30
2021,06,02,07,13,16.40
2021,06,02,07,14,16.50
2021,06,02,07,15,16.50
2021,06,02,07,16,16.60
2021,06,02,07,17,16.70
2021,06,02,07,18,16.70
2021,06,02,07,19,16.70
2021,06,02,07,20,16.80
2021,06,02,07,21,16.80
2021,06,02,07,22,16.80
2021,06,02,07,23,16.90
2021,06,02,07,24,16.90
2021,06,02,07,25,17.00
2021,06,02,07,26,17.10
2021,06,02,07,27,17.10
2021,06,02,07,28,17.20
2021,06,02,07,29,17.20
2021,06,02,07,30,17.30
2021,06,02,07,31,17.30
2021,06,02,07,32,17.40
2021,06,02,07,33,17.40
2021,06,02,07,34,17.40
2021,06,02,07,35,17.50
2021,06,02,07,36,17.50
2021,06,02,07,37,17.50
2021,06,02,07,38,17.60
2021,06,02,07,39,17.60
2021,06,02,07,40,17.60
2021,06,02,07,41,17.60
2021,06,02,07,42,17.70
2021,06,02,07,43,17.70
2021,06,02,07,44,17.70
2021,06,02,07,45,17.80
2021,06,02,07,46,17.80
2021,06,02,07,47,17.90
2021,06,02,07,48,17.90
2021,06,02,07,49,17.90
2021,06,02,07,50,18.00
2021,06,02,07,51,18.00
2021,06,02,07,52,18.10
2021,06,02,07,53,18.10
2021,06,02,07,54,18.10
2021,06,02,07,55,18.20
2021,06,02,07,56,18.20
2021,06,02,07,57,18.20
2021,06,02,07,58,18.30
2021,06,02,07,59,18.30
2021,06,02,08,00,18.40
2021,06,02,08,01,18.50
2021,06,02,08,02,18.50
2021,06,02,08,03,18.60
2021,06,02,08,04,18.70
2021,06,02,08,05,18.70
2021,06,02,08,06,18.80
2021,06,02,08,07,18.90
2021,06,02,08,08,19.00
2021,06,02,08,09,19.00
2021,06,02,08,10,19.10
2021,06,02,08,11,19.20
2021,06,02,08,12,19.20
2021,06,02,08,13,19.30
2021,06,02,08,14,19.40
2021,06,02,08,15,19.40
2021,06,02,08,16,19.50
2021,06,02,08,17,19.50
2021,06,02,08,18,19.60
2021,06,02,08,19,19.60
2021,06,02,08,20,19.70
2021,06,02,08,21,19.70
2021,06,02,08,22,19.80
2021,06,02,08,23,19.80
2021,06,02,08,24,19.80
2021,06,02,08,25,19.90
2021,06,02,08,26,19.90
2021,06,02,08,27,20.00
2021,06,02,08,28,20.10
2021,06,02,08,29,20.20
2021,06,02,08,30,20.30
2021,06,02,08,31,20.30
2021,06,02,08,32,20.40
2021,06,02,08,33,20.40
2021,06,02,08,34,20.50
2021,06,02,08,35,20.50
2021,06,02,08,36,20.60
2021,06,02,08,37,20.60
2021,06,02,08,38,20.70
2021,06,02,08,39,20.80
2021,06,02,08,40,20.80
2021,06,02,08,41,20.90
2021,06,02,08,42,20.90
2021,06,02,08,43,21.00
2021,06,02,08,44,21.10
2021,06,02,08,45,21.10
2021,06,02,08,46,21.20
2021,06,02,08,47,21.20
2021,06,02,08,48,21.20
2021,06,02,08,49,21.20
2021,06,02,08,50,21.30
2021,06,02,08,51,21.30
2021,06,02,08,52,21.30
2021,06,02,08,53,21.30
2021,06,02,08,54,21.30
2021,06,02,08,55,21.40
2021,06,02,08,56,21.40
2021,06,02,08,57,21.40
2021,06,02,08,58,21.50
2021,06,02,08,59,21.50
2021,06,02,09,00,21.60
2021,06,02,09,01,21.60
2021,06,02,09,02,21.60
2021,06,02,09,03,21.60
2021,06,02,09,04,21.60
2021,06,02,09,05,21.60
2021,06,02,09,06,21.60
2021,06,02,09,07,21.70
2021,06,02,09,08,21.70
2021,06,02,09,09,21.70
2021,06,02,09,10,21.80
2021,06,02,09,11,21.80
2021,06,02,09,12,21.80
2021,06,02,09,13,21.80
2021,06,02,09,14,21.90
2021,06,02,09,15,21.90
2021,06,02,09,16,21.90
2021,06,02,09,17,21.90
2021,06,02,09,18,21.90
2021,06,02,09,19,22.00
2021,06,02,09,20,22.00
2021,06,02,09,21,22.00
2021,06,02,09,22,22.10
2021,06,02,09,23,22.10
2021,06,02,09,24,22.20
2021,06,02,09,25,22.20
2021,06,02,09,26,22.20
2021,06,02,09,27,22.30
2021,06,02,09,28,22.30
2021,06,02,09,29,22.30
2021,06,02,09,30,22.30
2021,06,02,09,31,22.30
2021,06,02,09,32,22.30
2021,06,02,09,33,22.30
2021,06,02,09,34,22.30
2021,06,02,09,35,22.40
2021,06,02,09,36,22.40
2021,06,02,09,37,22.50
2021,06,02,09,38,22.50
2021,06,02,09,39,22.40
2021,06,02,09,40,22.50
2021,06,02,09,41,22.50
2021,06,02,09,42,22.50
2021,06,02,09,43,22.50
2021,06,02,09,44,22.50
2021,06,02,09,45,22.40
2021,06,02,09,46,22.40
2021,06,02,09,47,22.40
2021,06,02,09,48,22.50
2021,06,02,09,49,22.60
2021,06,02,09,50,22.60
2021,06,02,09,51,22.70
2021,06,02,09,52,22.70
2021,06,02,09,53,22.70
2021,06,02,09,54,22.70
2021,06,02,09,55,22.70
2021,06,02,09,56,22.80
2021,06,02,09,57,22.80
2021,06,02,09,58,22.70
2021,06,02,09,59,22.70
2021,06,02,10,00,22.70
2021,06,02,10,01,22.70
2021,06,02,10,02,22.70
2021,06,02,10,03,22.80
2021,06,02,10,04,22.80
2021,06,02,10,05,22.90
2021,06,02,10,06,23.00
2021,06,02,10,07,23.00
2021,06,02,10,08,23.10
2021,06,02,10,09,23.10
2021,06,02,10,10,23.20
2021,06,02,10,11,23.20
2021,06,02,10,12,23.10
2021,06,02,10,13,23.10
2021,06,02,10,14,23.00
2021,06,02,10,15,22.90
2021,06,02,10,16,22.90
2021,06,02,10,17,22.90
2021,06,02,10,18,22.80
2021,06,02,10,19,22.80
2021,06,02,10,20,22.80
2021,06,02,10,21,22.90
2021,06,02,10,22,22.90
2021,06,02,10,23,23.00
2021,06,02,10,24,23.10
2021,06,02,10,25,23.10
2021,06,02,10,26,23.20
2021,06,02,10,27,23.20
2021,06,02,10,28,23.30
2021,06,02,10,29,23.30
2021,06,02,10,30,23.50
2021,06,02,10,31,23.60
2021,06,02,10,32,23.70
2021,06,02,10,33,23.80
2021,06,02,10,34,23.90
2021,06,02,10,35,23.90
2021,06,02,10,36,24.00
2021,06,02,10,37,24.20
2021,06,02,10,38,24.20
2021,06,02,10,39,24.30
2021,06,02,10,40,24.30
2021,06,02,10,41,24.30
2021,06,02,10,42,24.30
2021,06,02,10,43,24.30
2021,06,02,10,44,24.30
2021,06,02,10,45,24.30
2021,06,02,10,46,24.40
2021,06,02,10,47,24.40
2021,06,02,10,48,24.40
2021,06,02,10,49,24.40
2021,06,02,10,50,24.30
2021,06,02,10,51,24.30
2021,06,02,10,52,24.20
2021,06,02,10,53,24.20
2021,06,02,10,54,24.20
2021,06,02,10,55,24.10
2021,06,02,10,56,24.00
2021,06,02,10,57,23.90
2021,06,02,10,58,23.90
2021,06,02,10,59,23.90
2021,06,02,11,00,23.90
2021,06,02,11,01,23.90
2021,06,02,11,02,24.00
2021,06,02,11,03,24.10
2021,06,02,11,04,24.10
2021,06,02,11,05,24.20
2021,06,02,11,06,24.30
2021,06,02,11,07,24.30
2021,06,02,11,08,24.30
2021,06,02,11,09,24.40
2021,06,02,11,10,24.50
2021,06,02,11,11,24.60
2021,06,02,11,12,24.70
2021,06,02,11,13,24.80
2021,06,02,11,14,24.80
2021,06,02,11,15,24.80
2021,06,02,11,16,24.80
2021,06,02,11,17,24.80
2021,06,02,11,18,24.70
2021,06,02,11,19,24.70
2021,06,02,11,20,24.60
2021,06,02,11,21,24.60
2021,06,02,11,22,24.50
2021,06,02,11,23,24.40
2021,06,02,11,24,24.40
2021,06,02,11,25,24.40
2021,06,02,11,26,24.40
2021,06,02,11,27,24.50
2021,06,02,11,28,24.50
2021,06,02,11,29,24.50
2021,06,02,11,30,24.60
2021,06,02,11,31,24.60
2021,06,02,11,32,24.70
2021,06,02,11,33,24.80
2021,06,02,11,34,24.90
2021,06,02,11,35,25.00
2021,06,02,11,36,25.00
2021,06,02,11,37,25.10
2021,06,02,11,38,25.10
2021,06,02,11,39,25.20
2021,06,02,11,40,25.20
2021,06,02,11,41,25.20
2021,06,02,11,42,25.20
2021,06,02,11,43,25.20
2021,06,02,11,44,25.10
2021,06,02,11,45,25.00
2021,06,02,11,46,24.90
2021,06,02,11,47,24.80
2021,06,02,11,48,24.70
2021,06,02,11,49,24.70
2021,06,02,11,50,24.70
2021,06,02,11,51,24.70
2021,06,02,11,52,24.70
2021,06,02,11,53,24.70
2021,06,02,11,54,24.70
2021,06,02,11,55,24.70
2021,06,02,11,56,24.70
2021,06,02,11,57,24.70
2021,06,02,11,58,24.60
2021,06,02,11,59,24.60
2021,06,02,12,00,24.60
2021,06,02,12,01,24.70
2021,06,02,12,02,24.70
2021,06,02,12,03,24.70
2021,06,02,12,04,24.80
2021,06,02,12,05,24.80
2021,06,02,12,06,24.80
2021,06,02,12,07,24.80
2021,06,02,12,08,24.80
2021,06,02,12,09,24.80
2021,06,02,12,10,24.80
2021,06,02,12,11,24.80
2021,06,02,12,12,24.80
2021,06,02,12,13,24.80
2021,06,02,12,14,24.80
2021,06,02,12,15,24.80
2021,06,02,12,16,24.80
2021,06,02,12,17,24.80
2021,06,02,12,18,24.80
2021,06,02,12,19,24.80
2021,06,02,12,20,24.90
2021,06,02,12,21,25.00
2021,06,02,12,22,25.10
2021,06,02,12,23,25.20
2021,06,02,12,24,25.40
2021,06,02,12,25,25.50
2021,06,02,12,26,25.60
2021,06,02,12,27,25.70
2021,06,02,12,28,25.80
2021,06,02,12,29,25.90
2021,06,02,12,30,26.10
2021,06,02,12,31,26.20
2021,06,02,12,32,26.40
2021,06,02,12,33,26.60
2021,06,02,12,34,26.70
2021,06,02,12,35,26.60
2021,06,02,12,36,26.60
2021,06,02,12,37,26.60
2021,06,02,12,38,26.70
2021,06,02,12,39,26.70
2021,06,02,12,40,26.70
2021,06,02,12,41,26.60
2021,06,02,12,42,26.70
2021,06,02,12,43,26.80
2021,06,02,12,44,26.90
2021,06,02,12,45,27.00
2021,06,02,12,46,27.10
2021,06,02,12,47,27.20
2021,06,02,12,48,27.30
2021,06,02,12,49,27.40
2021,06,02,12,50,27.60
2021,06,02,12,51,27.80
2021,06,02,12,52,27.90
2021,06,02,12,53,28.00
2021,06,02,12,54,28.10
2021,06,02,12,55,28.30
2021,06,02,12,56,28.40
2021,06,02,12,57,28.40
2021,06,02,12,58,28.50
2021,06,02,12,59,28.50
2021,06,02,13,00,28.60
2021,06,02,13,01,28.60
2021,06,02,13,02,28.60
2021,06,02,13,03,28.60
2021,06,02,13,04,28.70
2021,06,02,13,05,28.80
2021,06,02,13,06,28.80
2021,06,02,13,07,28.80
2021,06,02,13,08,28.80
2021,06,02,13,09,28.80
2021,06,02,13,10,28.90
2021,06,02,13,11,29.10
2021,06,02,13,12,29.20
2021,06,02,13,13,29.30
2021,06,02,13,14,29.30
2021,06,02,13,15,29.40
2021,06,02,13,16,29.40
2021,06,02,13,17,29.40
2021,06,02,13,18,29.50
2021,06,02,13,19,29.50
2021,06,02,13,20,29.60
2021,06,02,13,21,29.60
2021,06,02,13,22,29.60
2021,06,02,13,23,29.60
2021,06,02,13,24,29.50
2021,06,02,13,25,29.60
2021,06,02,13,26,29.60
2021,06,02,13,27,29.70
2021,06,02,13,28,29.70
2021,06,02,13,29,29.70
2021,06,02,13,30,29.70
2021,06,02,13,31,29.70
2021,06,02,13,32,29.70
2021,06,02,13,33,29.70
2021,06,02,13,34,29.70
2021,06,02,13,35,29.60
2021,06,02,13,36,29.60
2021,06,02,13,37,29.60
2021,06,02,13,38,29.60
2021,06,02,13,39,29.60
2021,06,02,13,40,29.60
2021,06,02,13,41,29.60
2021,06,02,13,42,29.60
2021,06,02,13,43,29.50
2021,06,02,13,44,29.50
2021,06,02,13,45,29.40
2021,06,02,13,46,29.30
2021,06,02,13,47,29.30
2021,06,02,13,48,29.40
2021,06,02,13,49,29.40
2021,06,02,13,50,29.40
2021,06,02,13,51,29.40
2021,06,02,13,52,29.40
2021,06,02,13,53,29.40
2021,06,02,13,54,29.40
2021,06,02,13,55,29.50
2021,06,02,13,56,29.50
2021,06,02,13,57,29.50
2021,06,02,13,58,29.60
2021,06,02,13,59,29.60
2021,06,02,14,00,29.70
2021,06,02,14,01,29.60
2021,06,02,14,02,29.60
2021,06,02,14,03,29.60
2021,06,02,14,04,29.50
2021,06,02,14,05,29.50
2021,06,02,14,06,29.50
2021,06,02,14,07,29.40
2021,06,02,14,08,29.40
2021,06,02,14,09,29.30
2021,06,02,14,10,29.30
2021,06,02,14,11,29.20
2021,06,02,14,12,29.20
2021,06,02,14,13,29.10
2021,06,02,14,14,28.90
2021,06,02,14,15,28.80
2021,06,02,14,16,28.60
2021,06,02,14,17,28.50
2021,06,02,14,18,28.50
2021,06,02,14,19,28.50
2021,06,02,14,20,28.50
2021,06,02,14,21,28.40
2021,06,02,14,22,28.30
2021,06,02,14,23,28.30
2021,06,02,14,24,28.30
2021,06,02,14,25,28.30
2021,06,02,14,26,28.30
2021,06,02,14,27,28.30
2021,06,02,14,28,28.30
2021,06,02,14,29,28.20
2021,06,02,14,30,28.20
2021,06,02,14,31,28.10
2021,06,02,14,32,28.10
2021,06,02,14,33,28.10
2021,06,02,14,34,28.20
2021,06,02,14,35,28.20
2021,06,02,14,36,28.20
2021,06,02,14,37,28.20
2021,06,02,14,38,28.20
2021,06,02,14,39,28.30
2021,06,02,14,40,28.30
2021,06,02,14,41,28.20
2021,06,02,14,42,28.20
2021,06,02,14,43,28.10
2021,06,02,14,44,28.00
2021,06,02,14,45,28.00
2021,06,02,14,46,28.00
2021,06,02,14,47,28.10
2021,06,02,14,48,28.20
2021,06,02,14,49,28.20
2021,06,02,14,50,28.20
2021,06,02,14,51,28.20
2021,06,02,14,52,28.20
2021,06,02,14,53,28.10
2021,06,02,14,54,28.10
2021,06,02,14,55,28.10
2021,06,02,14,56,28.10
2021,06,02,14,57,28.10
2021,06,02,14,58,28.10
2021,06,02,14,59,28.10
2021,06,02,15,00,28.10
2021,06,02,15,01,28.10
2021,06,02,15,02,28.00
2021,06,02,15,03,28.00
2021,06,02,15,04,28.10
2021,06,02,15,05,28.10
2021,06,02,15,06,28.20
2021,06,02,15,07,28.20
2021,06,02,15,08,28.20
2021,06,02,15,09,28.20
2021,06,02,15,10,28.30
2021,06,02,15,11,28.30
2021,06,02,15,12,28.30
2021,06,02,15,13,28.30
2021,06,02,15,14,28.20
2021,06,02,15,15,28.10
2021,06,02,15,16,28.00
2021,06,02,15,17,27.80
2021,06,02,15,18,27.70
2021,06,02,15,19,27.70
2021,06,02,15,20,27.70
2021,06,02,15,21,27.70
2021,06,02,15,22,27.60
2021,06,02,15,23,27.50
2021,06,02,15,24,27.50
2021,06,02,15,25,27.40
2021,06,02,15,26,27.40
2021,06,02,15,27,27.40
2021,06,02,15,28,27.40
2021,06,02,15,29,27.40
2021,06,02,15,30,27.40
2021,06,02,15,31,27.40
2021,06,02,15,32,27.50
2021,06,02,15,33,27.60
2021,06,02,15,34,27.60
2021,06,02,15,35,27.60
2021,06,02,15,36,27.70
2021,06,02,15,37,27.70
2021,06,02,15,38,27.70
2021,06,02,15,39,27.70
2021,06,02,15,40,27.80
2021,06,02,15,41,27.80
2021,06,02,15,42,27.80
2021,06,02,15,43,27.80
2021,06,02,15,44,27.80
2021,06,02,15,45,27.70
2021,06,02,15,46,27.70
2021,06,02,15,47,27.70
2021,06,02,15,48,27.70
2021,06,02,15,49,27.80
2021,06,02,15,50,27.80
2021,06,02,15,51,27.80
2021,06,02,15,52,27.80
2021,06,02,15,53,27.80
2021,06,02,15,54,27.80
2021,06,02,15,55,27.60
2021,06,02,15,56,27.50
2021,06,02,15,57,27.40
2021,06,02,15,58,27.40
2021,06,02,15,59,27.40
2021,06,02,16,00,27.40
2021,06,02,16,01,27.40
2021,06,02,16,02,27.40
2021,06,02,16,03,27.40
2021,06,02,16,04,27.40
2021,06,02,16,05,27.30
2021,06,02,16,06,27.30
2021,06,02,16,07,27.30
2021,06,02,16,08,27.20
2021,06,02,16,09,27.10
2021,06,02,16,10,27.10
2021,06,02,16,11,27.20
2021,06,02,16,12,27.30
2021,06,02,16,13,27.40
2021,06,02,16,14,27.40
2021,06,02,16,15,27.40
2021,06,02,16,16,27.40
2021,06,02,16,17,27.40
2021,06,02,16,18,27.30
2021,06,02,16,19,27.30
2021,06,02,16,20,27.30
2021,06,02,16,21,27.30
2021,06,02,16,22,27.30
2021,06,02,16,23,27.30
2021,06,02,16,24,27.20
2021,06,02,16,25,27.00
2021,06,02,16,26,26.90
2021,06,02,16,27,26.90
2021,06,02,16,28,26.90
2021,06,02,16,29,27.00
2021,06,02,16,30,27.10
2021,06,02,16,31,27.10
2021,06,02,16,32,27.10
2021,06,02,16,33,27.20
2021,06,02,16,34,27.20
2021,06,02,16,35,27.30
2021,06,02,16,36,27.20
2021,06,02,16,37,27.20
2021,06,02,16,38,27.10
2021,06,02,16,39,27.00
2021,06,02,16,40,26.90
2021,06,02,16,41,27.00
2021,06,02,16,42,27.00
2021,06,02,16,43,27.00
2021,06,02,16,44,26.90
2021,06,02,16,45,26.80
2021,06,02,16,46,26.80
2021,06,02,16,47,26.70
2021,06,02,16,48,26.60
2021,06,02,16,49,26.60
2021,06,02,16,50,26.60
2021,06,02,16,51,26.60
2021,06,02,16,52,26.70
2021,06,02,16,53,26.70
2021,06,02,16,54,26.70
2021,06,02,16,55,26.70
2021,06,02,16,56,26.70
2021,06,02,16,57,26.70
2021,06,02,16,58,26.70
2021,06,02,16,59,26.70
2021,06,02,17,00,26.60
2021,06,02,17,01,26.70
2021,06,02,17,02,26.70
2021,06,02,17,03,26.60
2021,06,02,17,04,26.60
2021,06,02,17,05,26.60
2021,06,02,17,06,26.60
2021,06,02,17,07,26.60
2021,06,02,17,08,26.70
2021,06,02,17,09,26.60
2021,06,02,17,10,26.60
2021,06,02,17,11,26.60
2021,06,02,17,12,26.60
2021,06,02,17,13,26.60
2021,06,02,17,14,26.70
2021,06,02,17,15,26.60
2021,06,02,17,16,26.60
2021,06,02,17,17,26.50
2021,06,02,17,18,26.50
2021,06,02,17,19,26.40